Park Rapids, MN

12:29 PM CDT on April 22, 2018 (GMT -0500)
Park Rapids Municipal

Weather History for KPKD - October, 2013

Change the Weather History Date:

Thursday, October 3, 2013

  Actual Average Record
Temperature  
Mean Temperature 54 °F -  
Max Temperature 62 °F 61 °F 88 °F (1953)
Min Temperature 46 °F 38 °F 20 °F (1989)
Degree Days  
Heating Degree Days 11    
Growing Degree Days 4 (Base 50)    
Moisture  
Dew Point 47 °F    
Average Humidity 84    
Maximum Humidity 97    
Minimum Humidity 56    
Precipitation  
Precipitation 0.03 in - - ()
Sea Level Pressure  
Sea Level Pressure 30.00 in    
Wind  
Wind Speed 6 mph (NNE)    
Max Wind Speed 16 mph    
Max Gust Speed 23 mph    
Visibility 10 miles    
Events Rain    
Averages and records for this station are not official NWS values.
T = Trace of Precipitation, MM = Missing Value Source: NWS Daily Summary

Daily Weather History Graph

Daily Weather History Graph

Search for Another Location

Airport or City:

Astronomy

Oct. 03, 2013 Rise Set
Actual Time 7:22 AM CDT 6:55 PM CDT
Civil Twilight 6:51 AM CDT 7:25 PM CDT
Nautical Twilight 6:16 AM CDT 8:00 PM CDT
Astronomical Twilight 5:40 AM CDT 8:36 PM CDT
Moon 5:53 AM CDT (10/3) 6:05 PM CDT (10/3)
Length of Visible Light 12h 33m
Length of Day
11h 33m
Waning Crescent, 2% of the Moon is Illuminated
Oct 3
Waning Crescent
Oct 4
New
Oct 11
First Quarter
Oct 18
Full
Oct 26
Last Quarter

Hourly Weather History & Observations

Time (CDT) Temp. Dew Point Humidity Pressure Visibility Wind Dir Wind Speed Gust Speed Precip Events Conditions
12:53 AM 52.0 °F 48.9 °F 89% 29.96 in 10.0 mi NNE 4.6 mph - N/A   Overcast
1:53 AM 48.9 °F 48.0 °F 97% 29.96 in 10.0 mi NE 3.5 mph - N/A   Clear
2:53 AM 48.9 °F 48.0 °F 97% 29.95 in 10.0 mi NE 5.8 mph - N/A   Clear
3:53 AM 48.9 °F 46.9 °F 93% 29.96 in 10.0 mi NE 3.5 mph - 0.01 in   Clear
4:53 AM 48.0 °F 46.9 °F 96% 29.97 in 10.0 mi NNE 5.8 mph - N/A   Clear
5:53 AM 48.0 °F 46.9 °F 96% 29.98 in 10.0 mi NNE 8.1 mph - N/A   Clear
6:53 AM 46.9 °F 45.0 °F 93% 29.99 in 10.0 mi North 4.6 mph - N/A   Clear
7:53 AM 46.9 °F 46.0 °F 97% 29.99 in 10.0 mi NNE 4.6 mph - N/A   Partly Cloudy
8:53 AM 48.9 °F 48.0 °F 97% 29.97 in 10.0 mi East 8.1 mph - N/A   Clear
9:12 AM 51.8 °F 48.2 °F 88% 29.97 in 10.0 mi ENE 5.8 mph - N/A   Partly Cloudy
9:29 AM 51.8 °F 48.2 °F 88% 29.99 in 10.0 mi North 5.8 mph - N/A   Mostly Cloudy
9:53 AM 52.0 °F 48.9 °F 89% 30.03 in 10.0 mi NNE 4.6 mph - N/A   Mostly Cloudy
10:11 AM 51.8 °F 48.2 °F 88% 30.00 in 10.0 mi North 6.9 mph - N/A   Scattered Clouds
10:53 AM 53.1 °F 48.9 °F 86% 30.02 in 10.0 mi North 9.2 mph - N/A   Clear
11:53 AM 57.0 °F 46.9 °F 69% 29.99 in 10.0 mi NE 12.7 mph 19.6 mph N/A   Clear
12:53 PM 59.0 °F 46.0 °F 62% 29.96 in 10.0 mi ENE 16.1 mph 23.0 mph N/A   Scattered Clouds
1:53 PM 62.1 °F 46.0 °F 56% 29.98 in 10.0 mi ENE 9.2 mph 18.4 mph N/A   Mostly Cloudy
2:53 PM 59.0 °F 46.0 °F 62% 29.99 in 10.0 mi ENE 9.2 mph - N/A   Overcast
3:53 PM 57.9 °F 46.0 °F 65% 29.98 in 10.0 mi NNE 11.5 mph - N/A   Overcast
4:53 PM 57.0 °F 48.0 °F 72% 29.99 in 10.0 mi NNE 8.1 mph - 0.00 in Rain Light Rain
5:53 PM 55.9 °F 48.0 °F 75% 29.99 in 10.0 mi NNE 6.9 mph - 0.00 in Rain Light Rain
6:53 PM 54.0 °F 48.0 °F 80% 30.01 in 10.0 mi North 9.2 mph - 0.01 in Rain Light Rain
7:53 PM 53.1 °F 48.0 °F 83% 30.03 in 10.0 mi NNE 10.4 mph - 0.00 in   Overcast
8:53 PM 53.1 °F 48.0 °F 83% 30.05 in 10.0 mi NNE 6.9 mph - N/A   Overcast
9:53 PM 53.1 °F 48.0 °F 83% 30.06 in 10.0 mi NNE 5.8 mph - 0.01 in Rain Light Rain
11:22 PM 51.8 °F 48.2 °F 88% 30.06 in 10.0 mi NNE 5.8 mph - N/A   Overcast
11:53 PM 52.0 °F 46.9 °F 83% 30.06 in 10.0 mi NNE 6.9 mph - N/A   Overcast